Time,TemperatureF,DewpointF,PressureIn,WindDirection,WindDirectionDegrees,WindSpeedMPH,WindSpeedGustMPH,Humidity,HourlyPrecipIn,Conditions,Clouds,dailyrainin,SoftwareType,DateUTC
2013-08-30 00:12:00,65.0,50.0,29.74,WNW,296,2.0,9.0,59,0.00,,,0.12,,2013-08-30 06:12:00,
2013-08-30 00:22:00,65.0,51.0,29.73,WNW,294,4.0,6.0,60,0.00,,,0.12,,2013-08-30 06:22:00,
2013-08-30 00:42:00,65.0,50.0,29.73,NW,306,2.0,9.0,59,0.00,,,0.12,,2013-08-30 06:42:00,
2013-08-30 00:53:00,64.0,52.0,29.74,WNW,302,2.0,7.0,64,0.00,,,0.12,,2013-08-30 06:53:00,
2013-08-30 01:11:00,63.0,51.0,29.74,West,273,3.0,6.0,66,0.00,,,0.12,,2013-08-30 07:11:00,
2013-08-30 01:21:00,64.0,53.0,29.74,NNW,343,3.0,5.0,67,0.00,,,0.12,,2013-08-30 07:21:00,
2013-08-30 01:43:00,63.0,50.0,29.74,NW,304,3.0,5.0,62,0.00,,,0.12,,2013-08-30 07:43:00,
2013-08-30 01:53:00,63.0,52.0,29.74,WNW,287,3.0,7.0,68,0.00,,,0.12,,2013-08-30 07:53:00,
2013-08-30 02:11:00,62.0,53.0,29.74,SW,215,1.0,5.0,72,0.00,,,0.12,,2013-08-30 08:11:00,
2013-08-30 02:22:00,60.0,52.0,29.74,WNW,290,4.0,7.0,75,0.00,,,0.12,,2013-08-30 08:22:00,
2013-08-30 02:42:00,61.0,51.0,29.74,WNW,298,6.0,10.0,69,0.00,,,0.12,,2013-08-30 08:42:00,
2013-08-30 02:52:00,63.0,51.0,29.75,WNW,298,2.0,7.0,64,0.00,,,0.12,,2013-08-30 08:52:00,
2013-08-30 03:12:00,62.0,51.0,29.76,ESE,113,2.0,5.0,67,0.00,,,0.12,,2013-08-30 09:12:00,
2013-08-30 03:22:00,62.0,51.0,29.76,NE,43,2.0,8.0,67,0.00,,,0.12,,2013-08-30 09:22:00,
2013-08-30 03:44:00,61.0,52.0,29.76,SSW,207,3.0,7.0,72,0.00,,,0.12,,2013-08-30 09:44:00,
2013-08-30 03:53:00,60.0,51.0,29.77,South,189,3.0,6.0,73,0.00,,,0.12,,2013-08-30 09:53:00,
2013-08-30 04:12:00,60.0,51.0,29.76,NW,311,7.0,10.0,72,0.00,,,0.12,,2013-08-30 10:12:00,
2013-08-30 04:23:00,60.0,51.0,29.76,WNW,290,3.0,6.0,72,0.00,,,0.12,,2013-08-30 10:23:00,
2013-08-30 04:43:00,59.0,51.0,29.75,WNW,290,0.0,3.0,74,0.00,,,0.12,,2013-08-30 10:43:00,
2013-08-30 04:53:00,60.0,51.0,29.75,WNW,288,0.0,5.0,73,0.00,,,0.12,,2013-08-30 10:53:00,
2013-08-30 05:12:00,59.0,51.0,29.75,West,270,2.0,6.0,74,0.00,,,0.12,,2013-08-30 11:12:00,
2013-08-30 05:22:00,58.0,50.0,29.75,West,271,3.0,6.0,75,0.00,,,0.12,,2013-08-30 11:22:00,
2013-08-30 05:41:00,60.0,51.0,29.75,WNW,289,2.0,7.0,71,0.00,,,0.12,,2013-08-30 11:41:00,
2013-08-30 05:52:00,60.0,50.0,29.75,West,281,3.0,11.0,70,0.00,,,0.12,,2013-08-30 11:52:00,
2013-08-30 06:12:00,59.0,49.0,29.75,WNW,296,6.0,8.0,69,0.00,,,0.12,,2013-08-30 12:12:00,
2013-08-30 06:21:00,60.0,49.0,29.75,West,277,5.0,9.0,68,0.00,,,0.12,,2013-08-30 12:21:00,
2013-08-30 06:41:00,60.0,49.0,29.75,WNW,301,5.0,9.0,67,0.00,,,0.12,,2013-08-30 12:41:00,
2013-08-30 06:52:00,59.0,50.0,29.76,WSW,251,4.0,6.0,72,0.00,,,0.12,,2013-08-30 12:52:00,
2013-08-30 07:11:00,59.0,51.0,29.76,WSW,251,0.0,3.0,74,0.00,,,0.12,,2013-08-30 13:11:00,
2013-08-30 07:21:00,59.0,51.0,29.76,WNW,294,2.0,7.0,74,0.00,,,0.12,,2013-08-30 13:21:00,
2013-08-30 07:52:00,61.0,51.0,29.77,WNW,302,3.0,7.0,69,0.00,,,0.12,,2013-08-30 13:52:00,
2013-08-30 08:11:00,63.0,52.0,29.77,WNW,302,0.0,0.0,68,0.00,,,0.12,,2013-08-30 14:11:00,
2013-08-30 08:21:00,65.0,53.0,29.77,WNW,302,0.0,1.0,65,0.00,,,0.12,,2013-08-30 14:21:00,
2013-08-30 08:42:00,67.0,53.0,29.77,WNW,302,0.0,3.0,61,0.00,,,0.12,,2013-08-30 14:42:00,
2013-08-30 08:52:00,69.0,51.0,29.77,WNW,302,1.0,3.0,53,0.00,,,0.12,,2013-08-30 14:52:00,
2013-08-30 09:11:00,71.0,52.0,29.77,NE,38,2.0,4.0,52,0.00,,,0.12,,2013-08-30 15:11:00,
2013-08-30 09:22:00,71.0,54.0,29.76,ENE,69,1.0,5.0,54,0.00,,,0.12,,2013-08-30 15:22:00,
2013-08-30 09:43:00,71.0,52.0,29.76,East,86,1.0,3.0,51,0.00,,,0.12,,2013-08-30 15:43:00,
2013-08-30 09:54:00,72.0,55.0,29.76,East,86,3.0,6.0,55,0.00,,,0.12,,2013-08-30 15:54:00,
2013-08-30 10:13:00,73.0,54.0,29.76,East,86,2.0,5.0,51,0.00,,,0.12,,2013-08-30 16:13:00,
2013-08-30 10:24:00,73.0,53.0,29.76,East,86,2.0,3.0,50,0.00,,,0.12,,2013-08-30 16:24:00,
2013-08-30 10:42:00,74.0,54.0,29.76,East,86,2.0,5.0,50,0.00,,,0.12,,2013-08-30 16:42:00,
2013-08-30 10:53:00,75.0,53.0,29.75,East,85,3.0,6.0,46,0.00,,,0.12,,2013-08-30 16:53:00,
2013-08-30 11:13:00,77.0,52.0,29.75,ESE,112,3.0,8.0,42,0.00,,,0.12,,2013-08-30 17:13:00,
2013-08-30 11:23:00,77.0,52.0,29.75,ESE,112,3.0,8.0,42,0.00,,,0.12,,2013-08-30 17:23:00,
2013-08-30 11:42:00,79.0,52.0,29.74,NE,36,3.0,6.0,39,0.00,,,0.12,,2013-08-30 17:42:00,
2013-08-30 11:53:00,81.0,54.0,29.73,NNE,27,6.0,13.0,39,0.00,,,0.12,,2013-08-30 17:53:00,
2013-08-30 12:12:00,83.0,52.0,29.73,NE,34,4.0,10.0,35,0.00,,,0.12,,2013-08-30 18:12:00,
2013-08-30 12:21:00,84.0,52.0,29.72,ENE,78,4.0,7.0,33,0.00,,,0.12,,2013-08-30 18:21:00,
2013-08-30 12:42:00,85.0,51.0,29.71,ENE,61,7.0,9.0,31,0.00,,,0.12,,2013-08-30 18:42:00,
2013-08-30 12:52:00,86.0,47.0,29.71,East,101,1.0,10.0,26,0.00,,,0.12,,2013-08-30 18:52:00,
2013-08-30 13:12:00,88.0,48.0,29.69,ESE,105,8.0,12.0,25,0.00,,,0.12,,2013-08-30 19:12:00,
2013-08-30 13:21:00,88.0,42.0,29.70,SSE,149,6.0,14.0,20,0.00,,,0.12,,2013-08-30 19:21:00,
2013-08-30 13:53:00,88.0,39.0,29.70,SSW,200,13.0,23.0,18,0.00,,,0.12,,2013-08-30 19:53:00,
2013-08-30 14:11:00,88.0,41.0,29.69,SW,236,11.0,21.0,19,0.00,,,0.12,,2013-08-30 20:11:00,
2013-08-30 14:21:00,88.0,41.0,29.69,West,265,9.0,19.0,19,0.00,,,0.12,,2013-08-30 20:21:00,
2013-08-30 15:21:00,84.0,45.0,29.72,SSW,194,7.0,18.0,26,0.01,,,0.13,,2013-08-30 21:21:00,
2013-08-30 15:54:00,88.0,44.0,29.68,South,171,9.0,15.0,22,0.00,,,0.13,,2013-08-30 21:54:00,
2013-08-30 16:13:00,88.0,43.0,29.67,South,176,11.0,16.0,21,0.00,,,0.13,,2013-08-30 22:13:00,
2013-08-30 16:24:00,87.0,42.0,29.66,South,183,10.0,16.0,21,0.00,,,0.01,,2013-08-30 22:24:00,
2013-08-30 16:33:00,87.0,42.0,29.66,South,183,10.0,16.0,21,0.00,,,0.01,,2013-08-30 22:33:00,
2013-08-30 16:54:00,88.0,42.0,29.64,SE,146,5.0,11.0,20,0.00,,,0.01,,2013-08-30 22:54:00,
2013-08-30 17:12:00,89.0,41.0,29.64,SE,136,10.0,15.0,19,0.00,,,0.01,,2013-08-30 23:12:00,
2013-08-30 17:22:00,89.0,43.0,29.63,ESE,123,8.0,16.0,20,0.00,,,0.01,,2013-08-30 23:22:00,
2013-08-30 17:42:00,89.0,41.0,29.62,ESE,110,12.0,16.0,19,0.00,,,0.01,,2013-08-30 23:42:00,
2013-08-30 17:53:00,89.0,41.0,29.62,ESE,110,12.0,16.0,19,0.00,,,0.01,,2013-08-30 23:53:00,
2013-08-30 18:02:00,89.0,41.0,29.62,ESE,110,12.0,16.0,19,0.00,,,0.01,,2013-08-31 00:02:00,
2013-08-30 18:52:00,86.0,41.0,29.62,NE,46,8.0,12.0,21,0.00,,,0.01,,2013-08-31 00:52:00,
2013-08-30 19:11:00,84.0,41.0,29.62,North,360,9.0,20.0,22,0.00,,,0.01,,2013-08-31 01:11:00,
2013-08-30 19:21:00,82.0,42.0,29.63,NNE,13,9.0,19.0,24,0.00,,,0.01,,2013-08-31 01:21:00,
2013-08-30 19:42:00,81.0,42.0,29.63,NNW,339,8.0,20.0,25,0.00,,,0.01,,2013-08-31 01:42:00,
2013-08-30 19:52:00,81.0,42.0,29.64,NNE,22,7.0,15.0,25,0.00,,,0.01,,2013-08-31 01:52:00,
2013-08-30 20:12:00,80.0,42.0,29.64,NNE,24,5.0,14.0,26,0.00,,,0.01,,2013-08-31 02:12:00,
2013-08-30 20:22:00,79.0,42.0,29.64,North,355,2.0,10.0,27,0.00,,,0.01,,2013-08-31 02:22:00,
2013-08-30 20:42:00,79.0,44.0,29.65,NNW,328,3.0,4.0,29,0.00,,,0.01,,2013-08-31 02:42:00,
2013-08-30 20:52:00,79.0,44.0,29.65,NNW,328,3.0,4.0,29,0.00,,,0.01,,2013-08-31 02:52:00,
2013-08-30 21:12:00,75.0,42.0,29.65,NW,304,6.0,10.0,31,0.00,,,0.01,,2013-08-31 03:12:00,
2013-08-30 21:22:00,75.0,42.0,29.65,WNW,300,6.0,10.0,31,0.00,,,0.01,,2013-08-31 03:22:00,
2013-08-30 21:44:00,75.0,42.0,29.64,NW,311,6.0,9.0,31,0.00,,,0.01,,2013-08-31 03:44:00,
2013-08-30 21:54:00,75.0,42.0,29.65,WNW,303,5.0,9.0,31,0.00,,,0.01,,2013-08-31 03:54:00,
2013-08-30 22:14:00,75.0,43.0,29.65,WNW,284,5.0,8.0,32,0.00,,,0.01,,2013-08-31 04:14:00,
2013-08-30 22:24:00,74.0,44.0,29.64,NW,304,6.0,8.0,34,0.00,,,0.01,,2013-08-31 04:24:00,
2013-08-30 22:44:00,73.0,43.0,29.64,NNW,327,5.0,9.0,34,0.00,,,0.01,,2013-08-31 04:44:00,
2013-08-30 22:54:00,73.0,43.0,29.63,WNW,300,2.0,8.0,34,0.00,,,0.01,,2013-08-31 04:54:00,
2013-08-30 23:13:00,73.0,44.0,29.63,WNW,299,1.0,6.0,35,0.00,,,0.01,,2013-08-31 05:13:00,
2013-08-30 23:23:00,72.0,45.0,29.62,West,275,0.0,3.0,38,0.00,,,0.01,,2013-08-31 05:23:00,
2013-08-30 23:42:00,71.0,43.0,29.61,NNE,22,5.0,8.0,37,0.00,,,0.01,,2013-08-31 05:42:00,
2013-08-30 23:52:00,71.0,43.0,29.61,North,5,6.0,10.0,37,0.00,,,0.01,,2013-08-31 05:52:00,